Year,Month,Day,Hour,Minute,Value (Times are PST for temperature in C)
2012,04,02,00,00,6.40
2012,04,02,00,01,6.40
2012,04,02,00,02,6.40
2012,04,02,00,03,6.40
2012,04,02,00,04,6.40
2012,04,02,00,05,6.40
2012,04,02,00,06,6.40
2012,04,02,00,07,6.40
2012,04,02,00,08,6.40
2012,04,02,00,09,6.40
2012,04,02,00,10,6.40
2012,04,02,00,11,6.40
2012,04,02,00,12,6.40
2012,04,02,00,13,6.40
2012,04,02,00,14,6.40
2012,04,02,00,15,6.40
2012,04,02,00,16,6.30
2012,04,02,00,17,6.30
2012,04,02,00,18,6.30
2012,04,02,00,19,6.30
2012,04,02,00,20,6.30
2012,04,02,00,21,6.30
2012,04,02,00,22,6.30
2012,04,02,00,23,6.30
2012,04,02,00,24,6.30
2012,04,02,00,25,6.30
2012,04,02,00,26,6.30
2012,04,02,00,27,6.30
2012,04,02,00,28,6.30
2012,04,02,00,29,6.30
2012,04,02,00,30,6.30
2012,04,02,00,31,6.30
2012,04,02,00,32,6.40
2012,04,02,00,33,6.40
2012,04,02,00,34,6.40
2012,04,02,00,35,6.40
2012,04,02,00,36,6.40
2012,04,02,00,37,6.40
2012,04,02,00,38,6.40
2012,04,02,00,39,6.40
2012,04,02,00,40,6.40
2012,04,02,00,41,6.40
2012,04,02,00,42,6.40
2012,04,02,00,43,6.40
2012,04,02,00,44,6.40
2012,04,02,00,45,6.40
2012,04,02,00,46,6.40
2012,04,02,00,47,6.40
2012,04,02,00,48,6.40
2012,04,02,00,49,6.40
2012,04,02,00,50,6.40
2012,04,02,00,51,6.40
2012,04,02,00,52,6.30
2012,04,02,00,53,6.30
2012,04,02,00,54,6.30
2012,04,02,00,55,6.30
2012,04,02,00,56,6.30
2012,04,02,00,57,6.30
2012,04,02,00,58,6.30
2012,04,02,00,59,6.30
2012,04,02,01,00,6.30
2012,04,02,01,01,6.30
2012,04,02,01,02,6.30
2012,04,02,01,03,6.20
2012,04,02,01,04,6.20
2012,04,02,01,05,6.20
2012,04,02,01,06,6.20
2012,04,02,01,07,6.20
2012,04,02,01,08,6.20
2012,04,02,01,09,6.20
2012,04,02,01,10,6.20
2012,04,02,01,11,6.20
2012,04,02,01,12,6.20
2012,04,02,01,13,6.20
2012,04,02,01,14,6.20
2012,04,02,01,15,6.20
2012,04,02,01,16,6.20
2012,04,02,01,17,6.20
2012,04,02,01,18,6.20
2012,04,02,01,19,6.20
2012,04,02,01,20,6.20
2012,04,02,01,21,6.20
2012,04,02,01,22,6.20
2012,04,02,01,23,6.20
2012,04,02,01,24,6.20
2012,04,02,01,25,6.20
2012,04,02,01,26,6.20
2012,04,02,01,27,6.20
2012,04,02,01,28,6.20
2012,04,02,01,29,6.20
2012,04,02,01,30,6.20
2012,04,02,01,31,6.20
2012,04,02,01,32,6.20
2012,04,02,01,33,6.20
2012,04,02,01,34,6.20
2012,04,02,01,35,6.20
2012,04,02,01,36,6.20
2012,04,02,01,37,6.20
2012,04,02,01,38,6.20
2012,04,02,01,39,6.20
2012,04,02,01,40,6.20
2012,04,02,01,41,6.20
2012,04,02,01,42,6.20
2012,04,02,01,43,6.20
2012,04,02,01,44,6.20
2012,04,02,01,45,6.20
2012,04,02,01,46,6.20
2012,04,02,01,47,6.20
2012,04,02,01,48,6.20
2012,04,02,01,49,6.20
2012,04,02,01,50,6.20
2012,04,02,01,51,6.20
2012,04,02,01,52,6.20
2012,04,02,01,53,6.20
2012,04,02,01,54,6.20
2012,04,02,01,55,6.20
2012,04,02,01,56,6.20
2012,04,02,01,57,6.20
2012,04,02,01,58,6.10
2012,04,02,01,59,6.10
2012,04,02,02,00,6.10
2012,04,02,02,01,6.10
2012,04,02,02,02,6.10
2012,04,02,02,03,6.10
2012,04,02,02,04,6.10
2012,04,02,02,05,6.10
2012,04,02,02,06,6.10
2012,04,02,02,07,6.10
2012,04,02,02,08,6.10
2012,04,02,02,09,6.10
2012,04,02,02,10,6.10
2012,04,02,02,11,6.10
2012,04,02,02,12,6.10
2012,04,02,02,13,6.00
2012,04,02,02,14,6.00
2012,04,02,02,15,6.00
2012,04,02,02,16,6.00
2012,04,02,02,17,6.00
2012,04,02,02,18,6.00
2012,04,02,02,19,6.00
2012,04,02,02,20,6.00
2012,04,02,02,21,6.00
2012,04,02,02,22,6.00
2012,04,02,02,23,6.00
2012,04,02,02,24,6.00
2012,04,02,02,25,6.00
2012,04,02,02,26,6.00
2012,04,02,02,27,6.00
2012,04,02,02,28,6.00
2012,04,02,02,29,6.00
2012,04,02,02,30,6.00
2012,04,02,02,31,6.00
2012,04,02,02,32,6.00
2012,04,02,02,33,6.00
2012,04,02,02,34,6.00
2012,04,02,02,35,6.00
2012,04,02,02,36,6.00
2012,04,02,02,37,6.00
2012,04,02,02,38,6.00
2012,04,02,02,39,6.00
2012,04,02,02,40,6.00
2012,04,02,02,41,6.00
2012,04,02,02,42,6.00
2012,04,02,02,43,6.00
2012,04,02,02,44,6.00
2012,04,02,02,45,6.00
2012,04,02,02,46,6.00
2012,04,02,02,47,6.00
2012,04,02,02,48,5.90
2012,04,02,02,49,5.90
2012,04,02,02,50,5.90
2012,04,02,02,51,5.90
2012,04,02,02,52,6.00
2012,04,02,02,53,6.00
2012,04,02,02,54,6.00
2012,04,02,02,55,6.00
2012,04,02,02,56,6.00
2012,04,02,02,57,6.00
2012,04,02,02,58,6.00
2012,04,02,02,59,6.00
2012,04,02,03,00,6.00
2012,04,02,03,01,6.00
2012,04,02,03,02,6.00
2012,04,02,03,03,6.00
2012,04,02,03,04,6.00
2012,04,02,03,05,6.00
2012,04,02,03,06,6.10
2012,04,02,03,07,6.10
2012,04,02,03,08,6.10
2012,04,02,03,09,6.20
2012,04,02,03,10,6.20
2012,04,02,03,11,6.20
2012,04,02,03,12,6.20
2012,04,02,03,13,6.20
2012,04,02,03,14,6.20
2012,04,02,03,15,6.20
2012,04,02,03,16,6.20
2012,04,02,03,17,6.20
2012,04,02,03,18,6.20
2012,04,02,03,19,6.20
2012,04,02,03,20,6.20
2012,04,02,03,21,6.20
2012,04,02,03,22,6.20
2012,04,02,03,23,6.20
2012,04,02,03,24,6.20
2012,04,02,03,25,6.20
2012,04,02,03,26,6.20
2012,04,02,03,27,6.20
2012,04,02,03,28,6.20
2012,04,02,03,29,6.20
2012,04,02,03,30,6.20
2012,04,02,03,31,6.20
2012,04,02,03,32,6.20
2012,04,02,03,33,6.20
2012,04,02,03,34,6.20
2012,04,02,03,35,6.20
2012,04,02,03,36,6.20
2012,04,02,03,37,6.20
2012,04,02,03,38,6.20
2012,04,02,03,39,6.20
2012,04,02,03,40,6.20
2012,04,02,03,41,6.20
2012,04,02,03,42,6.20
2012,04,02,03,43,6.20
2012,04,02,03,44,6.20
2012,04,02,03,45,6.20
2012,04,02,03,46,6.20
2012,04,02,03,47,6.20
2012,04,02,03,48,6.20
2012,04,02,03,49,6.20
2012,04,02,03,50,6.20
2012,04,02,03,51,6.20
2012,04,02,03,52,6.20
2012,04,02,03,53,6.20
2012,04,02,03,54,6.20
2012,04,02,03,55,6.20
2012,04,02,03,56,6.20
2012,04,02,03,57,6.20
2012,04,02,03,58,6.20
2012,04,02,03,59,6.20
2012,04,02,04,00,6.20
2012,04,02,04,01,6.20
2012,04,02,04,02,6.20
2012,04,02,04,03,6.20
2012,04,02,04,04,6.20
2012,04,02,04,05,6.20
2012,04,02,04,06,6.10
2012,04,02,04,07,6.10
2012,04,02,04,08,6.10
2012,04,02,04,09,6.10
2012,04,02,04,10,6.10
2012,04,02,04,11,6.10
2012,04,02,04,12,6.10
2012,04,02,04,13,6.10
2012,04,02,04,14,6.10
2012,04,02,04,15,6.10
2012,04,02,04,16,6.10
2012,04,02,04,17,6.10
2012,04,02,04,18,6.10
2012,04,02,04,19,6.10
2012,04,02,04,20,6.10
2012,04,02,04,21,6.10
2012,04,02,04,22,6.10
2012,04,02,04,23,6.10
2012,04,02,04,24,6.10
2012,04,02,04,25,6.10
2012,04,02,04,26,6.10
2012,04,02,04,27,6.10
2012,04,02,04,28,6.10
2012,04,02,04,29,6.10
2012,04,02,04,30,6.10
2012,04,02,04,31,6.10
2012,04,02,04,32,6.10
2012,04,02,04,33,6.20
2012,04,02,04,34,6.20
2012,04,02,04,35,6.20
2012,04,02,04,36,6.20
2012,04,02,04,37,6.20
2012,04,02,04,38,6.20
2012,04,02,04,39,6.20
2012,04,02,04,40,6.20
2012,04,02,04,41,6.20
2012,04,02,04,42,6.20
2012,04,02,04,43,6.20
2012,04,02,04,44,6.20
2012,04,02,04,45,6.20
2012,04,02,04,46,6.20
2012,04,02,04,47,6.20
2012,04,02,04,48,6.20
2012,04,02,04,49,6.20
2012,04,02,04,50,6.20
2012,04,02,04,51,6.20
2012,04,02,04,52,6.20
2012,04,02,04,53,6.20
2012,04,02,04,54,6.20
2012,04,02,04,55,6.20
2012,04,02,04,56,6.20
2012,04,02,04,57,6.20
2012,04,02,04,58,6.20
2012,04,02,04,59,6.20
2012,04,02,05,00,6.20
2012,04,02,05,01,6.20
2012,04,02,05,02,6.20
2012,04,02,05,03,6.20
2012,04,02,05,04,6.20
2012,04,02,05,05,6.20
2012,04,02,05,06,6.20
2012,04,02,05,07,6.20
2012,04,02,05,08,6.20
2012,04,02,05,09,6.20
2012,04,02,05,10,6.20
2012,04,02,05,11,6.20
2012,04,02,05,12,6.20
2012,04,02,05,13,6.20
2012,04,02,05,14,6.20
2012,04,02,05,15,6.20
2012,04,02,05,16,6.20
2012,04,02,05,17,6.20
2012,04,02,05,18,6.20
2012,04,02,05,19,6.20
2012,04,02,05,20,6.20
2012,04,02,05,21,6.20
2012,04,02,05,22,6.20
2012,04,02,05,23,6.20
2012,04,02,05,24,6.20
2012,04,02,05,25,6.20
2012,04,02,05,26,6.20
2012,04,02,05,27,6.20
2012,04,02,05,28,6.20
2012,04,02,05,29,6.20
2012,04,02,05,30,6.20
2012,04,02,05,31,6.20
2012,04,02,05,32,6.20
2012,04,02,05,33,6.20
2012,04,02,05,34,6.20
2012,04,02,05,35,6.20
2012,04,02,05,36,6.20
2012,04,02,05,37,6.20
2012,04,02,05,38,6.20
2012,04,02,05,39,6.20
2012,04,02,05,40,6.20
2012,04,02,05,41,6.20
2012,04,02,05,42,6.20
2012,04,02,05,43,6.20
2012,04,02,05,44,6.20
2012,04,02,05,45,6.20
2012,04,02,05,46,6.20
2012,04,02,05,47,6.20
2012,04,02,05,48,6.20
2012,04,02,05,49,6.20
2012,04,02,05,50,6.20
2012,04,02,05,51,6.20
2012,04,02,05,52,6.20
2012,04,02,05,53,6.20
2012,04,02,05,54,6.20
2012,04,02,05,55,6.20
2012,04,02,05,56,6.20
2012,04,02,05,57,6.20
2012,04,02,05,58,6.20
2012,04,02,05,59,6.20
2012,04,02,06,00,6.20
2012,04,02,06,01,6.20
2012,04,02,06,02,6.20
2012,04,02,06,03,6.20
2012,04,02,06,04,6.20
2012,04,02,06,05,6.20
2012,04,02,06,06,6.20
2012,04,02,06,07,6.10
2012,04,02,06,08,6.10
2012,04,02,06,09,6.10
2012,04,02,06,10,6.10
2012,04,02,06,11,6.10
2012,04,02,06,12,6.10
2012,04,02,06,13,6.10
2012,04,02,06,14,6.10
2012,04,02,06,15,6.10
2012,04,02,06,16,6.10
2012,04,02,06,17,6.10
2012,04,02,06,18,6.10
2012,04,02,06,19,6.10
2012,04,02,06,20,6.10
2012,04,02,06,21,6.10
2012,04,02,06,22,6.10
2012,04,02,06,23,6.10
2012,04,02,06,24,6.20
2012,04,02,06,25,6.20
2012,04,02,06,26,6.20
2012,04,02,06,27,6.10
2012,04,02,06,28,6.10
2012,04,02,06,29,6.10
2012,04,02,06,30,6.10
2012,04,02,06,31,6.20
2012,04,02,06,32,6.20
2012,04,02,06,33,6.20
2012,04,02,06,34,6.20
2012,04,02,06,35,6.20
2012,04,02,06,36,6.20
2012,04,02,06,37,6.20
2012,04,02,06,38,6.20
2012,04,02,06,39,6.20
2012,04,02,06,40,6.20
2012,04,02,06,41,6.20
2012,04,02,06,42,6.20
2012,04,02,06,43,6.20
2012,04,02,06,44,6.20
2012,04,02,06,45,6.20
2012,04,02,06,46,6.20
2012,04,02,06,47,6.20
2012,04,02,06,48,6.20
2012,04,02,06,49,6.20
2012,04,02,06,50,6.20
2012,04,02,06,51,6.20
2012,04,02,06,52,6.20
2012,04,02,06,53,6.20
2012,04,02,06,54,6.20
2012,04,02,06,55,6.20
2012,04,02,06,56,6.20
2012,04,02,06,57,6.20
2012,04,02,06,58,6.20
2012,04,02,06,59,6.20
2012,04,02,07,00,6.20
2012,04,02,07,01,6.20
2012,04,02,07,02,6.20
2012,04,02,07,03,6.20
2012,04,02,07,04,6.20
2012,04,02,07,05,6.20
2012,04,02,07,06,6.20
2012,04,02,07,07,6.20
2012,04,02,07,08,6.20
2012,04,02,07,09,6.20
2012,04,02,07,10,6.20
2012,04,02,07,11,6.20
2012,04,02,07,12,6.20
2012,04,02,07,13,6.20
2012,04,02,07,14,6.20
2012,04,02,07,15,6.20
2012,04,02,07,16,6.20
2012,04,02,07,17,6.20
2012,04,02,07,18,6.20
2012,04,02,07,19,6.20
2012,04,02,07,20,6.20
2012,04,02,07,21,6.20
2012,04,02,07,22,6.20
2012,04,02,07,23,6.20
2012,04,02,07,24,6.20
2012,04,02,07,25,6.20
2012,04,02,07,26,6.20
2012,04,02,07,27,6.20
2012,04,02,07,28,6.20
2012,04,02,07,29,6.20
2012,04,02,07,30,6.20
2012,04,02,07,31,6.20
2012,04,02,07,32,6.20
2012,04,02,07,33,6.20
2012,04,02,07,34,6.20
2012,04,02,07,35,6.20
2012,04,02,07,36,6.20
2012,04,02,07,37,6.20
2012,04,02,07,38,6.20
2012,04,02,07,39,6.20
2012,04,02,07,40,6.20
2012,04,02,07,41,6.20
2012,04,02,07,42,6.20
2012,04,02,07,43,6.20
2012,04,02,07,44,6.20
2012,04,02,07,45,6.30
2012,04,02,07,46,6.30
2012,04,02,07,47,6.30
2012,04,02,07,48,6.30
2012,04,02,07,49,6.30
2012,04,02,07,50,6.40
2012,04,02,07,51,6.40
2012,04,02,07,52,6.40
2012,04,02,07,53,6.40
2012,04,02,07,54,6.40
2012,04,02,07,55,6.40
2012,04,02,07,56,6.40
2012,04,02,07,57,6.40
2012,04,02,07,58,6.40
2012,04,02,07,59,6.40
2012,04,02,08,00,6.40
2012,04,02,08,01,6.40
2012,04,02,08,02,6.40
2012,04,02,08,03,6.40
2012,04,02,08,04,6.40
2012,04,02,08,05,6.40
2012,04,02,08,06,6.40
2012,04,02,08,07,6.40
2012,04,02,08,08,6.40
2012,04,02,08,09,6.40
2012,04,02,08,10,6.40
2012,04,02,08,11,6.40
2012,04,02,08,12,6.40
2012,04,02,08,13,6.40
2012,04,02,08,14,6.40
2012,04,02,08,15,6.40
2012,04,02,08,16,6.40
2012,04,02,08,17,6.40
2012,04,02,08,18,6.40
2012,04,02,08,19,6.50
2012,04,02,08,20,6.60
2012,04,02,08,21,6.60
2012,04,02,08,22,6.60
2012,04,02,08,23,6.60
2012,04,02,08,24,6.60
2012,04,02,08,25,6.70
2012,04,02,08,26,6.70
2012,04,02,08,27,6.70
2012,04,02,08,28,6.70
2012,04,02,08,29,6.70
2012,04,02,08,30,6.70
2012,04,02,08,31,6.70
2012,04,02,08,32,6.70
2012,04,02,08,33,6.80
2012,04,02,08,34,6.80
2012,04,02,08,35,6.80
2012,04,02,08,36,6.90
2012,04,02,08,37,6.90
2012,04,02,08,38,6.90
2012,04,02,08,39,6.90
2012,04,02,08,40,6.80
2012,04,02,08,41,6.80
2012,04,02,08,42,6.80
2012,04,02,08,43,6.80
2012,04,02,08,44,6.80
2012,04,02,08,45,6.80
2012,04,02,08,46,6.80
2012,04,02,08,47,6.80
2012,04,02,08,48,6.90
2012,04,02,08,49,6.90
2012,04,02,08,50,6.90
2012,04,02,08,51,6.90
2012,04,02,08,52,6.90
2012,04,02,08,53,6.90
2012,04,02,08,54,6.90
2012,04,02,08,55,6.80
2012,04,02,08,56,6.80
2012,04,02,08,57,6.80
2012,04,02,08,58,6.80
2012,04,02,08,59,6.80
2012,04,02,09,00,6.80
2012,04,02,09,01,6.80
2012,04,02,09,02,6.80
2012,04,02,09,03,6.80
2012,04,02,09,04,6.80
2012,04,02,09,05,6.80
2012,04,02,09,06,6.80
2012,04,02,09,07,6.80
2012,04,02,09,08,6.80
2012,04,02,09,09,6.80
2012,04,02,09,10,6.80
2012,04,02,09,11,6.80
2012,04,02,09,12,6.80
2012,04,02,09,13,6.90
2012,04,02,09,14,6.90
2012,04,02,09,15,6.80
2012,04,02,09,16,6.80
2012,04,02,09,17,6.90
2012,04,02,09,18,6.90
2012,04,02,09,19,6.90
2012,04,02,09,20,6.90
2012,04,02,09,21,6.90
2012,04,02,09,22,6.90
2012,04,02,09,23,6.90
2012,04,02,09,24,6.90
2012,04,02,09,25,6.90
2012,04,02,09,26,6.90
2012,04,02,09,27,7.00
2012,04,02,09,28,7.00
2012,04,02,09,29,7.10
2012,04,02,09,30,7.10
2012,04,02,09,31,7.10
2012,04,02,09,32,7.10
2012,04,02,09,33,7.10
2012,04,02,09,34,7.20
2012,04,02,09,35,7.20
2012,04,02,09,36,7.20
2012,04,02,09,37,7.20
2012,04,02,09,38,7.20
2012,04,02,09,39,7.30
2012,04,02,09,40,7.30
2012,04,02,09,41,7.30
2012,04,02,09,42,7.30
2012,04,02,09,43,7.30
2012,04,02,09,44,7.30
2012,04,02,09,45,7.30
2012,04,02,09,46,7.30
2012,04,02,09,47,7.30
2012,04,02,09,48,7.50
2012,04,02,09,49,7.50
2012,04,02,09,50,7.50
2012,04,02,09,51,7.50
2012,04,02,09,52,7.50
2012,04,02,09,53,7.60
2012,04,02,09,54,7.60
2012,04,02,09,55,7.60
2012,04,02,09,56,7.60
2012,04,02,09,57,7.70
2012,04,02,09,58,7.70
2012,04,02,09,59,7.60
2012,04,02,10,00,7.60
2012,04,02,10,01,7.60
2012,04,02,10,02,7.70
2012,04,02,10,03,7.70
2012,04,02,10,04,7.70
2012,04,02,10,05,7.70
2012,04,02,10,06,7.70
2012,04,02,10,07,7.60
2012,04,02,10,08,7.60
2012,04,02,10,09,7.70
2012,04,02,10,10,7.70
2012,04,02,10,11,7.70
2012,04,02,10,12,7.80
2012,04,02,10,13,7.70
2012,04,02,10,14,7.70
2012,04,02,10,15,7.80
2012,04,02,10,16,7.80
2012,04,02,10,17,7.80
2012,04,02,10,18,7.80
2012,04,02,10,19,7.80
2012,04,02,10,20,7.80
2012,04,02,10,21,7.80
2012,04,02,10,22,7.80
2012,04,02,10,23,7.80
2012,04,02,10,24,7.80
2012,04,02,10,25,7.80
2012,04,02,10,26,7.90
2012,04,02,10,27,7.90
2012,04,02,10,28,7.90
2012,04,02,10,29,8.00
2012,04,02,10,30,8.00
2012,04,02,10,31,8.00
2012,04,02,10,32,8.00
2012,04,02,10,33,8.00
2012,04,02,10,34,8.10
2012,04,02,10,35,8.10
2012,04,02,10,36,8.10
2012,04,02,10,37,8.20
2012,04,02,10,38,8.20
2012,04,02,10,39,8.20
2012,04,02,10,40,8.20
2012,04,02,10,41,8.30
2012,04,02,10,42,8.30
2012,04,02,10,43,8.30
2012,04,02,10,44,8.30
2012,04,02,10,45,8.40
2012,04,02,10,46,8.40
2012,04,02,10,47,8.40
2012,04,02,10,48,8.40
2012,04,02,10,49,8.40
2012,04,02,10,50,8.30
2012,04,02,10,51,8.30
2012,04,02,10,52,8.30
2012,04,02,10,53,8.30
2012,04,02,10,54,8.30
2012,04,02,10,55,8.30
2012,04,02,10,56,8.30
2012,04,02,10,57,8.30
2012,04,02,10,58,8.30
2012,04,02,10,59,8.30
2012,04,02,11,00,8.30
2012,04,02,11,01,8.20
2012,04,02,11,02,8.20
2012,04,02,11,03,8.20
2012,04,02,11,04,8.20
2012,04,02,11,05,8.20
2012,04,02,11,06,8.20
2012,04,02,11,07,8.20
2012,04,02,11,08,8.20
2012,04,02,11,09,8.20
2012,04,02,11,10,8.20
2012,04,02,11,11,8.20
2012,04,02,11,12,8.20
2012,04,02,11,13,8.20
2012,04,02,11,14,8.30
2012,04,02,11,15,8.30
2012,04,02,11,16,8.30
2012,04,02,11,17,8.30
2012,04,02,11,18,8.30
2012,04,02,11,19,8.30
2012,04,02,11,20,8.40
2012,04,02,11,21,8.30
2012,04,02,11,22,8.40
2012,04,02,11,23,8.40
2012,04,02,11,24,8.40
2012,04,02,11,25,8.40
2012,04,02,11,26,8.50
2012,04,02,11,27,8.60
2012,04,02,11,28,8.60
2012,04,02,11,29,8.60
2012,04,02,11,30,8.70
2012,04,02,11,31,8.60
2012,04,02,11,32,8.60
2012,04,02,11,33,8.60
2012,04,02,11,34,8.60
2012,04,02,11,35,8.60
2012,04,02,11,36,8.60
2012,04,02,11,37,8.60
2012,04,02,11,38,8.60
2012,04,02,11,39,8.60
2012,04,02,11,40,8.50
2012,04,02,11,41,8.50
2012,04,02,11,42,8.50
2012,04,02,11,43,8.50
2012,04,02,11,44,8.50
2012,04,02,11,45,8.50
2012,04,02,11,46,8.60
2012,04,02,11,47,8.60
2012,04,02,11,48,8.70
2012,04,02,11,49,8.70
2012,04,02,11,50,8.70
2012,04,02,11,51,8.70
2012,04,02,11,52,8.80
2012,04,02,11,53,8.80
2012,04,02,11,54,8.90
2012,04,02,11,55,8.90
2012,04,02,11,56,8.90
2012,04,02,11,57,8.90
2012,04,02,11,58,8.90
2012,04,02,11,59,8.90
2012,04,02,12,00,9.00
2012,04,02,12,01,9.10
2012,04,02,12,02,9.20
2012,04,02,12,03,9.20
2012,04,02,12,04,9.30
2012,04,02,12,05,9.30
2012,04,02,12,06,9.40
2012,04,02,12,07,9.30
2012,04,02,12,08,9.30
2012,04,02,12,09,9.30
2012,04,02,12,10,9.40
2012,04,02,12,11,9.50
2012,04,02,12,12,9.50
2012,04,02,12,13,9.50
2012,04,02,12,14,9.50
2012,04,02,12,15,9.50
2012,04,02,12,16,9.60
2012,04,02,12,17,9.60
2012,04,02,12,18,9.50
2012,04,02,12,19,9.50
2012,04,02,12,20,9.50
2012,04,02,12,21,9.50
2012,04,02,12,22,9.60
2012,04,02,12,23,9.70
2012,04,02,12,24,9.70
2012,04,02,12,25,9.70
2012,04,02,12,26,9.80
2012,04,02,12,27,9.90
2012,04,02,12,28,9.90
2012,04,02,12,29,9.90
2012,04,02,12,30,9.90
2012,04,02,12,31,9.90
2012,04,02,12,32,9.90
2012,04,02,12,33,9.90
2012,04,02,12,34,10.00
2012,04,02,12,35,10.10
2012,04,02,12,36,10.10
2012,04,02,12,37,10.10
2012,04,02,12,38,10.10
2012,04,02,12,39,10.10
2012,04,02,12,40,10.20
2012,04,02,12,41,10.20
2012,04,02,12,42,10.20
2012,04,02,12,43,10.40
2012,04,02,12,44,10.40
2012,04,02,12,45,10.40
2012,04,02,12,46,10.40
2012,04,02,12,47,10.40
2012,04,02,12,48,10.40
2012,04,02,12,49,10.40
2012,04,02,12,50,10.40
2012,04,02,12,51,10.30
2012,04,02,12,52,10.20
2012,04,02,12,53,10.20
2012,04,02,12,54,10.20
2012,04,02,12,55,10.30
2012,04,02,12,56,10.40
2012,04,02,12,57,10.20
2012,04,02,12,58,10.10
2012,04,02,12,59,10.10
2012,04,02,13,00,10.10
2012,04,02,13,01,10.00
2012,04,02,13,02,9.90
2012,04,02,13,03,9.90
2012,04,02,13,04,9.80
2012,04,02,13,05,9.80
2012,04,02,13,06,9.90
2012,04,02,13,07,10.00
2012,04,02,13,08,10.10
2012,04,02,13,09,10.20
2012,04,02,13,10,10.20
2012,04,02,13,11,10.20
2012,04,02,13,12,10.30
2012,04,02,13,13,10.40
2012,04,02,13,14,10.50
2012,04,02,13,15,10.60
2012,04,02,13,16,10.60
2012,04,02,13,17,10.60
2012,04,02,13,18,10.60
2012,04,02,13,19,10.60
2012,04,02,13,20,10.60
2012,04,02,13,21,10.60
2012,04,02,13,22,10.40
2012,04,02,13,23,10.50
2012,04,02,13,24,10.60
2012,04,02,13,25,10.70
2012,04,02,13,26,10.70
2012,04,02,13,27,10.70
2012,04,02,13,28,10.70
2012,04,02,13,29,10.70
2012,04,02,13,30,10.60
2012,04,02,13,31,10.70
2012,04,02,13,32,10.80
2012,04,02,13,33,10.90
2012,04,02,13,34,10.90
2012,04,02,13,35,10.90
2012,04,02,13,36,10.90
2012,04,02,13,37,10.80
2012,04,02,13,38,10.80
2012,04,02,13,39,10.90
2012,04,02,13,40,10.90
2012,04,02,13,41,10.90
2012,04,02,13,42,10.90
2012,04,02,13,43,10.90
2012,04,02,13,44,11.00
2012,04,02,13,45,11.00
2012,04,02,13,46,10.90
2012,04,02,13,47,10.90
2012,04,02,13,48,10.90
2012,04,02,13,49,10.90
2012,04,02,13,50,10.90
2012,04,02,13,51,10.90
2012,04,02,13,52,10.90
2012,04,02,13,53,10.90
2012,04,02,13,54,10.90
2012,04,02,13,55,10.90
2012,04,02,13,56,10.90
2012,04,02,13,57,10.90
2012,04,02,13,58,10.90
2012,04,02,13,59,11.10
2012,04,02,14,00,11.10
2012,04,02,14,01,11.10
2012,04,02,14,02,11.10
2012,04,02,14,03,11.10
2012,04,02,14,04,11.10
2012,04,02,14,05,11.20
2012,04,02,14,06,11.20
2012,04,02,14,07,11.20
2012,04,02,14,08,11.30
2012,04,02,14,09,11.30
2012,04,02,14,10,11.20
2012,04,02,14,11,11.20
2012,04,02,14,12,11.10
2012,04,02,14,13,11.10
2012,04,02,14,14,11.20
2012,04,02,14,15,11.30
2012,04,02,14,16,11.20
2012,04,02,14,17,11.20
2012,04,02,14,18,11.30
2012,04,02,14,19,11.30
2012,04,02,14,20,11.50
2012,04,02,14,21,11.60
2012,04,02,14,22,11.60
2012,04,02,14,23,11.70
2012,04,02,14,24,11.60
2012,04,02,14,25,11.60
2012,04,02,14,26,11.60
2012,04,02,14,27,11.50
2012,04,02,14,28,11.40
2012,04,02,14,29,11.50
2012,04,02,14,30,11.60
2012,04,02,14,31,11.60
2012,04,02,14,32,11.60
2012,04,02,14,33,11.60
2012,04,02,14,34,11.60
2012,04,02,14,35,11.60
2012,04,02,14,36,11.70
2012,04,02,14,37,11.70
2012,04,02,14,38,11.60
2012,04,02,14,39,11.60
2012,04,02,14,40,11.50
2012,04,02,14,41,11.50
2012,04,02,14,42,11.60
2012,04,02,14,43,11.60
2012,04,02,14,44,11.80
2012,04,02,14,45,11.70
2012,04,02,14,46,11.60
2012,04,02,14,47,11.60
2012,04,02,14,48,11.60
2012,04,02,14,49,11.60
2012,04,02,14,50,11.80
2012,04,02,14,51,11.80
2012,04,02,14,52,11.70
2012,04,02,14,53,11.70
2012,04,02,14,54,11.70
2012,04,02,14,55,11.60
2012,04,02,14,56,11.60
2012,04,02,14,57,11.60
2012,04,02,14,58,11.60
2012,04,02,14,59,11.60
2012,04,02,15,00,11.60
2012,04,02,15,01,11.60
2012,04,02,15,02,11.50
2012,04,02,15,03,11.40
2012,04,02,15,04,11.30
2012,04,02,15,05,11.30
2012,04,02,15,06,11.30
2012,04,02,15,07,11.40
2012,04,02,15,08,11.40
2012,04,02,15,09,11.50
2012,04,02,15,10,11.60
2012,04,02,15,11,11.60
2012,04,02,15,12,11.60
2012,04,02,15,13,11.70
2012,04,02,15,14,11.70
2012,04,02,15,15,11.70
2012,04,02,15,16,11.70
2012,04,02,15,17,11.70
2012,04,02,15,18,11.70
2012,04,02,15,19,11.70
2012,04,02,15,20,11.80
2012,04,02,15,21,12.00
2012,04,02,15,22,12.00
2012,04,02,15,23,12.00
2012,04,02,15,24,11.90
2012,04,02,15,25,11.80
2012,04,02,15,26,11.80
2012,04,02,15,27,11.80
2012,04,02,15,28,11.80
2012,04,02,15,29,11.90
2012,04,02,15,30,11.90
2012,04,02,15,31,11.90
2012,04,02,15,32,11.90
2012,04,02,15,33,12.00
2012,04,02,15,34,12.00
2012,04,02,15,35,12.00
2012,04,02,15,36,12.00
2012,04,02,15,37,12.00
2012,04,02,15,38,12.00
2012,04,02,15,39,12.00
2012,04,02,15,40,12.10
2012,04,02,15,41,12.10
2012,04,02,15,42,12.10
2012,04,02,15,43,12.30
2012,04,02,15,44,12.20
2012,04,02,15,45,12.20
2012,04,02,15,46,12.20
2012,04,02,15,47,12.20
2012,04,02,15,48,12.30
2012,04,02,15,49,12.30
2012,04,02,15,50,12.30
2012,04,02,15,51,12.30
2012,04,02,15,52,12.30
2012,04,02,15,53,12.30
2012,04,02,15,54,12.40
2012,04,02,15,55,12.50
2012,04,02,15,56,12.50
2012,04,02,15,57,12.40
2012,04,02,15,58,12.30
2012,04,02,15,59,12.30
2012,04,02,16,00,12.30
2012,04,02,16,01,12.30
2012,04,02,16,02,12.30
2012,04,02,16,03,12.30
2012,04,02,16,04,12.30
2012,04,02,16,05,12.30
2012,04,02,16,06,12.30
2012,04,02,16,07,12.40
2012,04,02,16,08,12.40
2012,04,02,16,09,12.40
2012,04,02,16,10,12.40
2012,04,02,16,11,12.30
2012,04,02,16,12,12.30
2012,04,02,16,13,12.40
2012,04,02,16,14,12.40
2012,04,02,16,15,12.40
2012,04,02,16,16,12.40
2012,04,02,16,17,12.40
2012,04,02,16,18,12.30
2012,04,02,16,19,12.30
2012,04,02,16,20,12.30
2012,04,02,16,21,12.40
2012,04,02,16,22,12.40
2012,04,02,16,23,12.40
2012,04,02,16,24,12.30
2012,04,02,16,25,12.30
2012,04,02,16,26,12.30
2012,04,02,16,27,12.30
2012,04,02,16,28,12.30
2012,04,02,16,29,12.30
2012,04,02,16,30,12.20
2012,04,02,16,31,12.20
2012,04,02,16,32,12.10
2012,04,02,16,33,12.10
2012,04,02,16,34,12.10
2012,04,02,16,35,12.10
2012,04,02,16,36,12.10
2012,04,02,16,37,12.20
2012,04,02,16,38,12.20
2012,04,02,16,39,12.20
2012,04,02,16,40,12.20
2012,04,02,16,41,12.20
2012,04,02,16,42,12.20
2012,04,02,16,43,12.20
2012,04,02,16,44,12.30
2012,04,02,16,45,12.30
2012,04,02,16,46,12.30
2012,04,02,16,47,12.30
2012,04,02,16,48,12.30
2012,04,02,16,49,12.30
2012,04,02,16,50,12.30
2012,04,02,16,51,12.30
2012,04,02,16,52,12.30
2012,04,02,16,53,12.20
2012,04,02,16,54,12.30
2012,04,02,16,55,12.30
2012,04,02,16,56,12.30
2012,04,02,16,57,12.30
2012,04,02,16,58,12.30
2012,04,02,16,59,12.30
2012,04,02,17,00,12.30
2012,04,02,17,01,12.30
2012,04,02,17,02,12.30
2012,04,02,17,03,12.30
2012,04,02,17,04,12.30
2012,04,02,17,05,12.30
2012,04,02,17,06,12.30
2012,04,02,17,07,12.30
2012,04,02,17,08,12.30
2012,04,02,17,09,12.20
2012,04,02,17,10,12.20
2012,04,02,17,11,12.20
2012,04,02,17,12,12.20
2012,04,02,17,13,12.20
2012,04,02,17,14,12.20
2012,04,02,17,15,12.20
2012,04,02,17,16,12.20
2012,04,02,17,17,12.20
2012,04,02,17,18,12.20
2012,04,02,17,19,12.20
2012,04,02,17,20,12.20
2012,04,02,17,21,12.20
2012,04,02,17,22,12.20
2012,04,02,17,23,12.20
2012,04,02,17,24,12.20
2012,04,02,17,25,12.20
2012,04,02,17,26,12.20
2012,04,02,17,27,12.20
2012,04,02,17,28,12.20
2012,04,02,17,29,12.20
2012,04,02,17,30,12.20
2012,04,02,17,31,12.20
2012,04,02,17,32,12.20
2012,04,02,17,33,12.20
2012,04,02,17,34,12.20
2012,04,02,17,35,12.20
2012,04,02,17,36,12.20
2012,04,02,17,37,12.20
2012,04,02,17,38,12.10
2012,04,02,17,39,12.10
2012,04,02,17,40,12.00
2012,04,02,17,41,12.00
2012,04,02,17,42,12.00
2012,04,02,17,43,12.00
2012,04,02,17,44,12.00
2012,04,02,17,45,12.00
2012,04,02,17,46,12.00
2012,04,02,17,47,12.10
2012,04,02,17,48,12.10
2012,04,02,17,49,12.10
2012,04,02,17,50,12.10
2012,04,02,17,51,12.10
2012,04,02,17,52,12.10